Location: Glencliff
(36.1226°N, 86.7183°W)
Time: 14:13:26
(UTC+00:00)

Cosmos 1818 - Pass Details

Date: 25 August 2019
Orbit: 774 x 799 km, 65.0° (Epoch: 16 September)

Event Time Altitude Azimuth Distance (km) Brightness Sun altitude
Exits shadow 10:18:45 13° 230° (SW) 2,127 5.2 -11.2°
Maximum altitude 10:23:23 50° 303° (WNW) 1,003 3.9 -10.3°
Drops below altitude 10° 10:28:41 10° 19° (NNE) 2,375 6.6 -9.3°
Sets 10:31:12 0° 25° (NNE) 3,310 7.5 -8.9°
